Flag for Malaysia Weather past 2 weeks in Johor Bahru, Malaysia

Now
75 °F

Fog.


Feels Like: 73 °F
Forecast: 79 / 90 °F
Wind: No wind

Location: Johore Bharu / Senai

Current Time: May 26, 2015 at 2:54:34 AM

Latest Report: May 26, 2015 at 2:00 AM


Visibility: 2 mi

Pressure: 29.86 "Hg

Humidity: 100%

Dew point: 75 °F

Location of Johor BahruLocation

Historic Weather in Johor Bahru — Graph

°F

Johor Bahru temperature yesterday

Maximum temperature yesterday: 90 °F (at 1:00 PM)
Minimum temperature yesterday: 75 °F (at 4:00 AM)
Average temperature yesterday: 79 °F

Past Weeks' High & Low Weather Summary

 TemperatureHumidityPressure
High93 °F (May 11, 3:00 PM)100% (May 11, 1:00 AM)29.92 "Hg (May 11, 1:00 AM)
Low75 °F (May 11, 7:00 AM)59% (May 11, 3:00 PM)29.71 "Hg (May 17, 4:00 PM)
Average80 °F91%29.83 "Hg
* Reported May 11 1:00 AM — May 26 1:00 AM, Johor Bahru, Weather by CustomWeather, © 2015

Note: Actual official high and low records may vary slightly from our data, if they occured in-between our weather recording intervals... More about our weather records

Advertising

Johor Bahru weather history for previous 24 hours

 ConditionsComfort  
Time TempWeatherWind HumidityBarometerVisibility
1:00 AM
Tue, May 26
75 °FFog.1 mph100%29.89 "Hg2 mi
12:00 AM75 °FFog.No wind100%29.89 "Hg3 mi
11:00 PM
Mon, May 25
75 °FFog.1 mph100%29.89 "Hg3 mi
10:00 PM75 °FFog.2 mph100%29.89 "Hg3 mi
9:00 PM77 °FFog.No wind94%29.86 "Hg2 mi
8:00 PM77 °FPartly cloudy.No wind94%29.83 "Hg4 mi
7:00 PM77 °FBroken clouds.No wind94%29.83 "HgN/A
6:00 PM77 °FLight rain. Broken clouds.1 mph94%29.80 "HgN/A
5:00 PM77 °FLight rain. Broken clouds.3 mph100%29.80 "Hg5 mi
4:00 PM77 °FLight rain. Broken clouds.2 mph100%29.80 "Hg5 mi
3:00 PM75 °FStrong thunderstorms. Broken clouds.8 mph100%29.80 "Hg1 mi
2:00 PM86 °FThunderstorms. Broken clouds.3 mph84%29.80 "Hg4 mi
1:00 PM90 °FThunderstorms. Broken clouds.6 mph71%29.83 "HgN/A
12:00 PM88 °FPartly sunny.7 mph79%29.86 "HgN/A
11:00 AM88 °FPartly sunny.5 mph75%29.86 "HgN/A
10:00 AM86 °FPartly sunny.3 mph79%29.89 "HgN/A
9:00 AM82 °FPartly sunny.No wind84%29.89 "HgN/A
8:00 AM77 °FPartly sunny.No wind94%29.86 "Hg4 mi
7:00 AM75 °FPartly sunny.2 mph100%29.86 "Hg4 mi
6:00 AM75 °FPassing clouds.1 mph100%29.83 "Hg5 mi
5:00 AM75 °FPassing clouds.No wind100%29.83 "Hg5 mi
4:00 AM75 °FPassing clouds.No wind100%29.83 "Hg5 mi
3:00 AM77 °FPassing clouds.1 mph94%29.83 "HgN/A
2:00 AM77 °FPassing clouds.2 mph100%29.83 "HgN/A
Weather by CustomWeather, © 2015

See weather overviewHow to use our weather pages